Time,TemperatureF,DewpointF,PressureIn,WindDirection,WindDirectionDegrees,WindSpeedMPH,WindSpeedGustMPH,Humidity,HourlyPrecipIn,Conditions,Clouds,dailyrainin,SoftwareType,DateUTC
2013-01-05 00:04:00,76.6,65.7,30.12,SSE,168,3.6,3.6,69,0.00,,SCT120,0.00,VWS V14.01,2013-01-05 04:04:00,
2013-01-05 00:09:00,76.6,65.7,30.12,ESE,116,0.0,3.6,69,0.00,,SCT120,0.00,VWS V14.01,2013-01-05 04:09:00,
2013-01-05 00:14:00,76.6,65.7,30.12,ESE,118,0.0,4.0,69,0.00,,SCT120,0.00,VWS V14.01,2013-01-05 04:14:00,
2013-01-05 00:19:00,76.6,65.7,30.12,ESE,122,0.0,0.0,69,0.00,,SCT120,0.00,VWS V14.01,2013-01-05 04:19:00,
2013-01-05 00:24:00,76.6,65.7,30.12,ESE,122,0.0,0.0,69,0.00,,SCT120,0.00,VWS V14.01,2013-01-05 04:24:00,
2013-01-05 00:29:00,76.6,66.1,30.12,ESE,106,0.0,2.7,70,0.00,,SCT120,0.00,VWS V14.01,2013-01-05 04:29:00,
2013-01-05 00:34:00,76.6,66.1,30.12,SE,143,0.0,2.7,70,0.00,,SCT120,0.00,VWS V14.01,2013-01-05 04:34:00,
2013-01-05 00:39:00,76.5,66.0,30.12,SSE,148,2.2,2.2,70,0.00,,SCT120,0.00,VWS V14.01,2013-01-05 04:39:00,
2013-01-05 00:44:00,76.5,66.0,30.12,ESE,114,0.0,3.1,70,0.00,,SCT120,0.00,VWS V14.01,2013-01-05 04:44:00,
2013-01-05 00:49:00,76.5,66.0,30.12,ESE,113,0.0,3.1,70,0.00,,SCT120,0.00,VWS V14.01,2013-01-05 04:49:00,
2013-01-05 00:54:00,76.3,65.8,30.09,East,93,2.7,6.3,70,0.00,,SCT120,0.00,VWS V14.01,2013-01-05 04:54:00,
2013-01-05 00:59:00,76.3,65.8,30.09,ESE,112,3.6,4.0,70,0.00,,SCT120,0.00,VWS V14.01,2013-01-05 04:59:00,
2013-01-05 01:00:00,76.3,65.8,30.09,ESE,112,0.0,4.0,70,0.00,,SCT120,0.00,VWS V14.01,2013-01-05 05:00:00,
2013-01-05 01:01:00,76.3,65.8,30.09,ESE,102,3.1,4.0,70,0.00,,SCT120,0.00,VWS V14.01,2013-01-05 05:01:00,
2013-01-05 01:06:00,76.1,65.6,30.09,ESE,102,2.7,4.0,70,0.00,,SCT120,0.00,VWS V14.01,2013-01-05 05:06:00,
2013-01-05 01:11:00,76.3,65.8,30.09,East,95,2.7,5.8,70,0.00,,SCT120,0.00,VWS V14.01,2013-01-05 05:11:00,
2013-01-05 01:16:00,76.1,65.2,30.09,East,93,2.7,5.8,69,0.00,,SCT120,0.00,VWS V14.01,2013-01-05 05:16:00,
2013-01-05 01:21:00,76.1,64.8,30.09,ENE,75,3.1,4.9,68,0.00,,SCT120,0.00,VWS V14.01,2013-01-05 05:21:00,
2013-01-05 01:26:00,76.1,64.8,30.09,ESE,103,0.0,4.9,68,0.00,,SCT120,0.00,VWS V14.01,2013-01-05 05:26:00,
2013-01-05 01:31:00,76.3,64.5,30.09,SE,141,2.7,4.9,67,0.00,,SCT120,0.00,VWS V14.01,2013-01-05 05:31:00,
2013-01-05 01:36:00,76.3,64.9,30.09,ESE,119,0.0,5.4,68,0.00,,SCT120,0.00,VWS V14.01,2013-01-05 05:36:00,
2013-01-05 01:41:00,76.3,64.9,30.09,East,81,0.0,3.1,68,0.00,,SCT120,0.00,VWS V14.01,2013-01-05 05:41:00,
2013-01-05 01:46:00,76.1,65.2,30.09,East,100,0.0,3.1,69,0.00,,SCT120,0.00,VWS V14.01,2013-01-05 05:46:00,
2013-01-05 01:51:00,75.9,65.0,30.09,ESE,105,0.0,4.9,69,0.00,,SCT120,0.00,VWS V14.01,2013-01-05 05:51:00,
2013-01-05 01:56:00,75.9,65.4,30.09,SE,137,3.1,6.3,70,0.00,,SCT120,0.00,VWS V14.01,2013-01-05 05:56:00,
2013-01-05 02:01:00,75.9,65.4,30.09,ESE,114,0.0,2.2,70,0.00,,SCT120,0.00,VWS V14.01,2013-01-05 06:01:00,
2013-01-05 02:06:00,75.7,65.3,30.09,ESE,104,3.1,4.9,70,0.00,,SCT120,0.00,VWS V14.01,2013-01-05 06:06:00,
2013-01-05 02:11:00,75.7,65.3,30.09,ESE,104,0.0,4.9,70,0.00,,SCT120,0.00,VWS V14.01,2013-01-05 06:11:00,
2013-01-05 02:16:00,75.7,65.3,30.09,East,91,0.0,4.9,70,0.00,,SCT120,0.00,VWS V14.01,2013-01-05 06:16:00,
2013-01-05 02:21:00,75.6,65.1,30.09,ESE,122,0.0,0.0,70,0.00,,SCT120,0.00,VWS V14.01,2013-01-05 06:21:00,
2013-01-05 02:26:00,75.6,65.1,30.09,SE,125,3.1,3.1,70,0.00,,SCT120,0.00,VWS V14.01,2013-01-05 06:26:00,
2013-01-05 02:31:00,75.6,65.1,30.09,East,98,0.0,3.6,70,0.00,,SCT120,0.00,VWS V14.01,2013-01-05 06:31:00,
2013-01-05 02:36:00,75.6,65.1,30.09,ESE,110,0.0,3.6,70,0.00,,SCT120,0.00,VWS V14.01,2013-01-05 06:36:00,
2013-01-05 02:41:00,75.4,64.9,30.09,ESE,116,0.0,0.0,70,0.00,,SCT120,0.00,VWS V14.01,2013-01-05 06:41:00,
2013-01-05 02:46:00,75.4,64.9,30.09,ESE,116,0.0,0.0,70,0.00,,SCT120,0.00,VWS V14.01,2013-01-05 06:46:00,
2013-01-05 02:51:00,75.4,65.3,30.09,ESE,116,0.0,0.0,71,0.00,,SCT120,0.00,VWS V14.01,2013-01-05 06:51:00,
2013-01-05 02:56:00,75.4,65.3,30.09,SE,135,0.0,2.7,71,0.00,,SCT120,0.00,VWS V14.01,2013-01-05 06:56:00,
2013-01-05 03:01:00,75.4,65.3,30.09,SE,125,0.0,0.0,71,0.00,,SCT120,0.00,VWS V14.01,2013-01-05 07:01:00,
2013-01-05 03:06:00,75.4,65.7,30.09,SE,125,0.0,0.0,72,0.00,,SCT120,0.00,VWS V14.01,2013-01-05 07:06:00,
2013-01-05 03:11:00,75.0,65.8,30.09,SE,125,0.0,0.0,73,0.00,,SCT120,0.00,VWS V14.01,2013-01-05 07:11:00,
2013-01-05 03:16:00,75.0,65.8,30.09,East,101,0.0,0.0,73,0.00,,SCT120,0.00,VWS V14.01,2013-01-05 07:16:00,
2013-01-05 03:21:00,74.8,66.0,30.09,East,90,0.0,2.7,74,0.00,,SCT120,0.00,VWS V14.01,2013-01-05 07:21:00,
2013-01-05 03:26:00,74.8,66.0,30.09,East,97,0.0,3.1,74,0.00,,SCT120,0.00,VWS V14.01,2013-01-05 07:26:00,
2013-01-05 03:31:00,74.8,66.0,30.09,East,94,2.7,5.4,74,0.00,,SCT120,0.00,VWS V14.01,2013-01-05 07:31:00,
2013-01-05 03:36:00,74.7,66.2,30.09,ESE,115,3.1,5.4,75,0.00,,SCT120,0.00,VWS V14.01,2013-01-05 07:36:00,
2013-01-05 03:41:00,74.7,66.2,30.09,East,93,3.1,3.6,75,0.00,,SCT120,0.00,VWS V14.01,2013-01-05 07:41:00,
2013-01-05 03:46:00,74.7,66.2,30.09,East,94,0.0,3.6,75,0.00,,SCT120,0.00,VWS V14.01,2013-01-05 07:46:00,
2013-01-05 03:51:00,74.7,66.2,30.09,East,94,0.0,3.6,75,0.00,,SCT120,0.00,VWS V14.01,2013-01-05 07:51:00,
2013-01-05 03:56:00,74.5,65.7,30.09,East,94,0.0,3.6,74,0.00,,SCT120,0.00,VWS V14.01,2013-01-05 07:56:00,
2013-01-05 04:01:00,74.3,65.5,30.09,East,99,2.2,3.6,74,0.00,,SCT120,0.00,VWS V14.01,2013-01-05 08:01:00,
2013-01-05 04:06:00,74.1,65.7,30.09,East,89,0.0,3.6,75,0.00,,SCT120,0.00,VWS V14.01,2013-01-05 08:06:00,
2013-01-05 04:11:00,74.1,65.7,30.09,East,99,0.0,3.6,75,0.00,,SCT120,0.00,VWS V14.01,2013-01-05 08:11:00,
2013-01-05 04:16:00,73.9,65.5,30.09,ESE,109,0.0,4.0,75,0.00,,SCT120,0.00,VWS V14.01,2013-01-05 08:16:00,
2013-01-05 04:21:00,73.9,65.5,30.09,East,87,0.0,0.0,75,0.00,,SCT120,0.00,VWS V14.01,2013-01-05 08:21:00,
2013-01-05 04:26:00,73.9,65.9,30.09,East,87,0.0,2.7,76,0.00,,SCT120,0.00,VWS V14.01,2013-01-05 08:26:00,
2013-01-05 04:31:00,73.9,65.9,30.09,East,87,0.0,2.7,76,0.00,,SCT120,0.00,VWS V14.01,2013-01-05 08:31:00,
2013-01-05 04:36:00,74.1,66.1,30.09,East,87,0.0,2.7,76,0.00,,SCT120,0.00,VWS V14.01,2013-01-05 08:36:00,
2013-01-05 04:41:00,74.1,66.1,30.09,East,87,0.0,0.0,76,0.00,,SCT120,0.00,VWS V14.01,2013-01-05 08:41:00,
2013-01-05 04:46:00,74.3,66.2,30.09,East,87,0.0,0.0,76,0.00,,SCT120,0.00,VWS V14.01,2013-01-05 08:46:00,
2013-01-05 04:51:00,74.1,66.1,30.09,East,86,0.0,0.0,76,0.00,,SCT120,0.00,VWS V14.01,2013-01-05 08:51:00,
2013-01-05 04:56:00,73.9,65.9,30.09,East,87,0.0,0.0,76,0.00,,SCT120,0.00,VWS V14.01,2013-01-05 08:56:00,
2013-01-05 05:01:00,73.9,65.9,30.09,East,87,0.0,0.0,76,0.00,,SCT120,0.00,VWS V14.01,2013-01-05 09:01:00,
2013-01-05 05:06:00,73.8,65.7,30.09,East,86,0.0,0.0,76,0.00,,SCT120,0.00,VWS V14.01,2013-01-05 09:06:00,
2013-01-05 05:11:00,73.8,65.7,30.09,East,87,0.0,0.0,76,0.00,,SCT120,0.00,VWS V14.01,2013-01-05 09:11:00,
2013-01-05 05:16:00,73.8,66.1,30.09,East,80,0.0,3.1,77,0.00,,SCT120,0.00,VWS V14.01,2013-01-05 09:16:00,
2013-01-05 05:21:00,73.8,66.1,30.09,East,81,0.0,0.0,77,0.00,,SCT120,0.00,VWS V14.01,2013-01-05 09:21:00,
2013-01-05 05:26:00,73.8,66.1,30.09,East,81,0.0,0.0,77,0.00,,SCT120,0.00,VWS V14.01,2013-01-05 09:26:00,
2013-01-05 05:31:00,73.8,66.1,30.09,East,80,0.0,0.0,77,0.00,,SCT120,0.00,VWS V14.01,2013-01-05 09:31:00,
2013-01-05 05:36:00,73.8,66.1,30.09,East,81,0.0,0.0,77,0.00,,SCT120,0.00,VWS V14.01,2013-01-05 09:36:00,
2013-01-05 05:41:00,73.8,66.5,30.09,ENE,69,0.0,2.2,78,0.00,,SCT120,0.00,VWS V14.01,2013-01-05 09:41:00,
2013-01-05 05:46:00,73.6,66.3,30.09,ENE,67,0.0,2.7,78,0.00,,SCT120,0.00,VWS V14.01,2013-01-05 09:46:00,
2013-01-05 05:51:00,73.6,66.3,30.09,ENE,68,2.2,2.7,78,0.00,,SCT120,0.00,VWS V14.01,2013-01-05 09:51:00,
2013-01-05 05:56:00,73.4,66.1,30.09,NE,56,0.0,3.1,78,0.00,,SCT120,0.00,VWS V14.01,2013-01-05 09:56:00,
2013-01-05 06:01:00,73.4,66.1,30.09,East,86,2.2,4.0,78,0.00,,SCT120,0.00,VWS V14.01,2013-01-05 10:01:00,
2013-01-05 06:06:00,73.4,66.1,30.09,East,101,0.0,4.0,78,0.00,,SCT120,0.00,VWS V14.01,2013-01-05 10:06:00,
2013-01-05 06:11:00,73.4,66.1,30.09,East,100,0.0,4.0,78,0.00,,SCT120,0.00,VWS V14.01,2013-01-05 10:11:00,
2013-01-05 06:16:00,73.4,66.1,30.09,East,100,0.0,4.0,78,0.00,,SCT120,0.00,VWS V14.01,2013-01-05 10:16:00,
2013-01-05 06:21:00,73.4,66.1,30.12,East,101,0.0,0.0,78,0.00,,SCT120,0.00,VWS V14.01,2013-01-05 10:21:00,
2013-01-05 06:26:00,73.4,66.1,30.12,East,100,0.0,0.0,78,0.00,,SCT120,0.00,VWS V14.01,2013-01-05 10:26:00,
2013-01-05 06:31:00,73.4,65.8,30.12,East,100,0.0,0.0,77,0.00,,SCT120,0.00,VWS V14.01,2013-01-05 10:31:00,
2013-01-05 06:36:00,73.6,65.9,30.12,East,100,0.0,0.0,77,0.00,,SCT120,0.00,VWS V14.01,2013-01-05 10:36:00,
2013-01-05 06:41:00,73.6,65.9,30.12,East,101,0.0,0.0,77,0.00,,SCT120,0.00,VWS V14.01,2013-01-05 10:41:00,
2013-01-05 06:46:00,73.6,65.9,30.12,East,100,0.0,0.0,77,0.00,,SCT120,0.00,VWS V14.01,2013-01-05 10:46:00,
2013-01-05 06:51:00,73.6,65.9,30.12,East,100,0.0,0.0,77,0.00,,SCT120,0.00,VWS V14.01,2013-01-05 10:51:00,
2013-01-05 06:56:00,73.6,65.9,30.12,East,101,0.0,0.0,77,0.00,,SCT120,0.00,VWS V14.01,2013-01-05 10:56:00,
2013-01-05 07:01:00,73.8,66.1,30.12,East,100,0.0,0.0,77,0.00,,SCT120,0.00,VWS V14.01,2013-01-05 11:01:00,
2013-01-05 07:06:00,73.6,65.9,30.12,East,100,0.0,0.0,77,0.00,,SCT120,0.00,VWS V14.01,2013-01-05 11:06:00,
2013-01-05 07:11:00,73.4,66.1,30.12,East,100,0.0,0.0,78,0.00,,SCT120,0.00,VWS V14.01,2013-01-05 11:11:00,
2013-01-05 07:16:00,73.2,66.0,30.12,East,100,0.0,0.0,78,0.00,,SCT120,0.00,VWS V14.01,2013-01-05 11:16:00,
2013-01-05 07:21:00,73.2,66.3,30.12,East,92,0.0,2.7,79,0.00,,SCT120,0.00,VWS V14.01,2013-01-05 11:21:00,
2013-01-05 07:26:00,73.4,66.1,30.12,East,93,0.0,2.7,78,0.00,,SCT120,0.00,VWS V14.01,2013-01-05 11:26:00,
2013-01-05 07:31:00,73.6,66.3,30.12,East,93,0.0,2.7,78,0.00,,SCT120,0.00,VWS V14.01,2013-01-05 11:31:00,
2013-01-05 07:36:00,73.6,66.3,30.15,East,93,0.0,2.7,78,0.00,,SCT120,0.00,VWS V14.01,2013-01-05 11:36:00,
2013-01-05 07:41:00,73.8,66.5,30.15,SE,144,0.0,3.6,78,0.00,,SCT120,0.00,VWS V14.01,2013-01-05 11:41:00,
2013-01-05 07:46:00,73.8,66.5,30.15,SE,144,0.0,3.6,78,0.00,,SCT120,0.00,VWS V14.01,2013-01-05 11:46:00,
2013-01-05 07:51:00,73.9,66.3,30.15,South,175,0.0,3.6,77,0.00,,SCT120,0.00,VWS V14.01,2013-01-05 11:51:00,
2013-01-05 07:56:00,73.9,66.3,30.15,South,174,0.0,3.6,77,0.04,,SCT120,0.04,VWS V14.01,2013-01-05 11:56:00,
2013-01-05 08:01:00,74.1,66.5,30.15,South,175,0.0,0.0,77,0.04,,SCT120,0.04,VWS V14.01,2013-01-05 12:01:00,
2013-01-05 08:06:00,74.1,66.8,30.15,South,175,0.0,0.0,78,0.04,,SCT120,0.04,VWS V14.01,2013-01-05 12:06:00,
2013-01-05 08:11:00,74.5,67.2,30.15,East,91,0.0,4.0,78,0.04,,SCT120,0.04,VWS V14.01,2013-01-05 12:11:00,
2013-01-05 08:16:00,75.0,68.1,30.15,East,91,0.0,4.0,79,0.04,,SCT120,0.04,VWS V14.01,2013-01-05 12:16:00,
2013-01-05 08:21:00,75.6,68.6,30.15,ESE,108,3.1,3.1,79,0.04,,SCT120,0.04,VWS V14.01,2013-01-05 12:21:00,
2013-01-05 08:26:00,76.1,69.1,30.15,SE,127,0.0,4.9,79,0.04,,SCT120,0.04,VWS V14.01,2013-01-05 12:26:00,
2013-01-05 08:31:00,76.1,68.8,30.15,East,96,2.7,4.9,78,0.04,,SCT120,0.04,VWS V14.01,2013-01-05 12:31:00,
2013-01-05 08:36:00,75.6,67.5,30.18,ESE,115,0.0,4.9,76,0.04,,SCT120,0.04,VWS V14.01,2013-01-05 12:36:00,
2013-01-05 08:41:00,75.6,67.1,30.18,ESE,121,2.7,3.1,75,0.04,,SCT120,0.04,VWS V14.01,2013-01-05 12:41:00,
2013-01-05 08:46:00,75.4,66.1,30.18,NE,55,3.1,4.9,73,0.04,,SCT120,0.04,VWS V14.01,2013-01-05 12:46:00,
2013-01-05 08:51:00,75.7,66.1,30.18,ESE,107,5.4,5.4,72,0.04,,SCT120,0.04,VWS V14.01,2013-01-05 12:51:00,
2013-01-05 08:56:00,76.1,64.8,30.18,ENE,71,4.0,5.4,68,0.04,,SCT120,0.04,VWS V14.01,2013-01-05 12:56:00,
2013-01-05 09:01:00,76.8,61.9,30.18,East,85,4.0,6.3,60,0.00,,SCT120,0.04,VWS V14.01,2013-01-05 13:01:00,
2013-01-05 09:06:00,77.5,61.1,30.18,SE,124,4.0,7.6,57,0.00,,SCT120,0.04,VWS V14.01,2013-01-05 13:06:00,
2013-01-05 09:11:00,77.9,58.3,30.18,East,84,6.3,7.6,51,0.00,,SCT120,0.04,VWS V14.01,2013-01-05 13:11:00,
2013-01-05 09:16:00,78.1,57.4,30.18,SE,130,3.6,8.3,49,0.00,,SCT120,0.04,VWS V14.01,2013-01-05 13:16:00,
2013-01-05 09:21:00,77.5,58.0,30.18,East,95,2.7,2.7,51,0.00,,SCT120,0.04,VWS V14.01,2013-01-05 13:21:00,
2013-01-05 09:26:00,77.0,56.4,30.18,East,95,2.7,2.7,49,0.00,,SCT120,0.04,VWS V14.01,2013-01-05 13:26:00,
2013-01-05 09:31:00,77.0,56.4,30.18,East,95,2.7,2.7,49,0.00,,SCT120,0.04,VWS V14.01,2013-01-05 13:31:00,
2013-01-05 09:36:00,76.8,56.2,30.18,East,95,2.7,2.7,49,0.00,,SCT120,0.04,VWS V14.01,2013-01-05 13:36:00,
2013-01-05 09:41:00,77.0,58.0,30.18,East,95,2.7,2.7,52,0.00,,SCT120,0.04,VWS V14.01,2013-01-05 13:41:00,
2013-01-05 09:46:00,77.0,58.0,30.18,East,95,2.7,2.7,52,0.00,,SCT120,0.04,VWS V14.01,2013-01-05 13:46:00,
2013-01-05 09:51:00,77.7,58.7,30.18,East,95,2.7,2.7,52,0.00,,SCT120,0.04,VWS V14.01,2013-01-05 13:51:00,
2013-01-05 09:56:00,77.9,57.2,30.18,East,85,8.3,10.1,49,0.00,,SCT120,0.04,VWS V14.01,2013-01-05 13:56:00,
2013-01-05 10:01:00,78.6,58.4,30.18,NE,53,8.3,8.3,50,0.00,,SCT120,0.04,VWS V14.01,2013-01-05 14:01:00,
2013-01-05 10:06:00,79.5,57.0,30.18,WNW,294,4.0,9.6,46,0.00,,SCT120,0.04,VWS V14.01,2013-01-05 14:06:00,
2013-01-05 10:11:00,80.4,57.8,30.18,SE,126,5.4,9.6,46,0.00,,SCT120,0.04,VWS V14.01,2013-01-05 14:11:00,
2013-01-05 10:16:00,81.0,56.4,30.18,ESE,120,4.0,9.6,43,0.00,,SCT120,0.04,VWS V14.01,2013-01-05 14:16:00,
2013-01-05 10:21:00,81.1,54.5,30.15,East,91,5.8,10.1,40,0.00,,SCT120,0.04,VWS V14.01,2013-01-05 14:21:00,
2013-01-05 10:26:00,81.3,52.6,30.15,NNE,31,7.6,11.9,37,0.00,,SCT120,0.04,VWS V14.01,2013-01-05 14:26:00,
2013-01-05 10:31:00,80.6,51.2,30.15,NE,40,5.8,12.8,36,0.00,,SCT120,0.04,VWS V14.01,2013-01-05 14:31:00,
2013-01-05 10:36:00,80.2,50.9,30.18,NE,55,11.0,12.8,36,0.00,,SCT120,0.04,VWS V14.01,2013-01-05 14:36:00,
2013-01-05 10:41:00,80.8,50.6,30.18,ENE,59,5.8,8.1,35,0.00,,SCT120,0.04,VWS V14.01,2013-01-05 14:41:00,
2013-01-05 10:46:00,81.7,49.8,30.18,ESE,108,3.1,8.7,33,0.00,,SCT120,0.04,VWS V14.01,2013-01-05 14:46:00,
2013-01-05 10:51:00,82.2,50.3,30.15,South,179,2.7,8.7,33,0.00,,SCT120,0.04,VWS V14.01,2013-01-05 14:51:00,
2013-01-05 10:56:00,81.7,50.6,30.15,NE,45,8.1,8.7,34,0.00,,SCT120,0.04,VWS V14.01,2013-01-05 14:56:00,
2013-01-05 11:01:00,81.0,50.8,30.15,ENE,72,5.8,8.1,35,0.00,,SCT120,0.04,VWS V14.01,2013-01-05 15:01:00,
2013-01-05 11:06:00,80.4,50.3,30.15,ENE,60,5.8,10.5,35,0.00,,SCT120,0.04,VWS V14.01,2013-01-05 15:06:00,
2013-01-05 11:11:00,80.1,49.2,30.15,SE,134,6.3,10.5,34,0.00,,SCT120,0.04,VWS V14.01,2013-01-05 15:11:00,
2013-01-05 11:16:00,80.2,49.3,30.15,ENE,63,8.3,10.5,34,0.00,,SCT120,0.04,VWS V14.01,2013-01-05 15:16:00,
2013-01-05 11:21:00,80.4,49.5,30.15,ESE,105,3.1,7.6,34,0.00,,SCT120,0.04,VWS V14.01,2013-01-05 15:21:00,
2013-01-05 11:26:00,80.8,49.0,30.15,ESE,113,7.6,8.7,33,0.00,,SCT120,0.04,VWS V14.01,2013-01-05 15:26:00,
2013-01-05 11:31:00,80.4,49.5,30.15,East,81,8.7,10.1,34,0.00,,SCT120,0.04,VWS V14.01,2013-01-05 15:31:00,
2013-01-05 11:36:00,80.2,49.3,30.15,ENE,58,4.0,10.1,34,0.00,,SCT120,0.04,VWS V14.01,2013-01-05 15:36:00,
2013-01-05 11:41:00,80.4,51.0,30.15,ENE,68,7.6,10.5,36,0.00,,SCT120,0.04,VWS V14.01,2013-01-05 15:41:00,
2013-01-05 11:46:00,80.8,51.4,30.15,East,88,8.7,10.5,36,0.00,,SCT120,0.04,VWS V14.01,2013-01-05 15:46:00,
2013-01-05 11:51:00,81.3,50.3,30.15,South,182,3.6,10.5,34,0.00,,SCT120,0.04,VWS V14.01,2013-01-05 15:51:00,
2013-01-05 11:56:00,81.7,49.0,30.15,ENE,60,2.7,10.5,32,0.00,,SCT120,0.04,VWS V14.01,2013-01-05 15:56:00,
2013-01-05 12:01:00,81.7,48.1,30.15,NNE,30,4.0,6.3,31,0.00,,SCT120,0.04,VWS V14.01,2013-01-05 16:01:00,
2013-01-05 12:06:00,81.9,48.3,30.15,East,85,5.4,7.6,31,0.00,,SCT120,0.04,VWS V14.01,2013-01-05 16:06:00,
2013-01-05 12:11:00,82.2,48.6,30.15,ESE,113,3.1,7.6,31,0.00,,SCT120,0.04,VWS V14.01,2013-01-05 16:11:00,
2013-01-05 12:16:00,82.8,48.2,30.15,North,357,5.8,8.7,30,0.00,,SCT120,0.04,VWS V14.01,2013-01-05 16:16:00,
2013-01-05 12:21:00,83.3,48.7,30.12,NE,45,3.1,7.6,30,0.00,,SCT120,0.04,VWS V14.01,2013-01-05 16:21:00,
2013-01-05 12:26:00,83.7,48.1,30.12,ENE,74,6.3,8.3,29,0.00,,SCT120,0.04,VWS V14.01,2013-01-05 16:26:00,
2013-01-05 12:31:00,84.0,47.4,30.12,ESE,108,6.3,11.0,28,0.00,,SCT120,0.04,VWS V14.01,2013-01-05 16:31:00,
2013-01-05 12:36:00,83.7,44.2,30.12,East,98,8.3,11.0,25,0.00,,SCT120,0.04,VWS V14.01,2013-01-05 16:36:00,
2013-01-05 12:41:00,82.9,45.6,30.12,East,92,7.6,8.3,27,0.00,,SCT120,0.04,VWS V14.01,2013-01-05 16:41:00,
2013-01-05 12:46:00,83.5,47.9,30.12,ENE,64,10.5,11.0,29,0.00,,SCT120,0.04,VWS V14.01,2013-01-05 16:46:00,
2013-01-05 12:51:00,83.1,46.7,30.12,ENE,61,5.4,15.4,28,0.00,,SCT120,0.04,VWS V14.01,2013-01-05 16:51:00,
2013-01-05 12:56:00,84.0,44.5,30.12,East,95,8.7,15.4,25,0.00,,SCT120,0.04,VWS V14.01,2013-01-05 16:56:00,
2013-01-05 13:01:00,84.0,43.4,30.12,NE,48,4.9,11.0,24,0.00,,SCT120,0.04,VWS V14.01,2013-01-05 17:01:00,
2013-01-05 13:06:00,84.4,41.4,30.12,East,90,4.0,11.0,22,0.00,,SCT120,0.04,VWS V14.01,2013-01-05 17:06:00,
2013-01-05 13:11:00,85.3,42.2,30.12,East,79,5.8,11.0,22,0.00,,SCT120,0.04,VWS V14.01,2013-01-05 17:11:00,
2013-01-05 13:16:00,83.8,41.0,30.12,ENE,78,6.3,11.0,22,0.00,,SCT120,0.04,VWS V14.01,2013-01-05 17:16:00,
2013-01-05 13:21:00,84.2,42.4,30.09,ENE,62,8.7,8.7,23,0.00,,SCT120,0.04,VWS V14.01,2013-01-05 17:21:00,
2013-01-05 13:26:00,83.8,44.3,30.09,East,80,5.4,10.1,25,0.00,,SCT120,0.04,VWS V14.01,2013-01-05 17:26:00,
2013-01-05 13:31:00,83.5,45.0,30.09,ENE,70,10.5,11.0,26,0.00,,SCT120,0.04,VWS V14.01,2013-01-05 17:31:00,
2013-01-05 13:36:00,83.5,45.0,30.09,SSE,152,8.3,11.0,26,0.00,,SCT120,0.04,VWS V14.01,2013-01-05 17:36:00,
2013-01-05 13:41:00,83.1,45.7,30.09,East,85,5.8,11.0,27,0.00,,SCT120,0.04,VWS V14.01,2013-01-05 17:41:00,
2013-01-05 13:46:00,82.9,47.5,30.09,ENE,77,3.1,11.0,29,0.00,,SCT120,0.04,VWS V14.01,2013-01-05 17:46:00,
2013-01-05 13:51:00,82.9,47.5,30.09,East,88,4.9,11.0,29,0.00,,SCT120,0.04,VWS V14.01,2013-01-05 17:51:00,
2013-01-05 13:56:00,82.6,43.2,30.09,ENE,64,5.4,11.0,25,0.00,,SCT120,0.04,VWS V14.01,2013-01-05 17:56:00,
2013-01-05 14:01:00,82.4,47.0,30.09,NE,56,7.6,8.1,29,0.00,,SCT120,0.04,VWS V14.01,2013-01-05 18:01:00,
2013-01-05 14:06:00,82.4,47.9,30.09,North,11,7.6,10.1,30,0.00,,SCT120,0.04,VWS V14.01,2013-01-05 18:06:00,
2013-01-05 14:11:00,82.8,48.2,30.09,East,91,5.4,10.1,30,0.00,,SCT120,0.04,VWS V14.01,2013-01-05 18:11:00,
2013-01-05 14:16:00,82.2,47.7,30.09,NNE,25,6.3,10.1,30,0.00,,SCT120,0.04,VWS V14.01,2013-01-05 18:16:00,
2013-01-05 14:21:00,82.8,49.1,30.06,ENE,62,4.0,10.1,31,0.00,,SCT120,0.04,VWS V14.01,2013-01-05 18:21:00,
2013-01-05 14:26:00,83.5,48.8,30.06,East,87,4.0,10.5,30,0.00,,SCT120,0.04,VWS V14.01,2013-01-05 18:26:00,
2013-01-05 14:31:00,82.8,48.2,30.06,NNE,24,5.8,11.0,30,0.00,,SCT120,0.04,VWS V14.01,2013-01-05 18:31:00,
2013-01-05 14:36:00,82.0,48.5,30.06,NNE,20,7.6,11.0,31,0.00,,SCT120,0.04,VWS V14.01,2013-01-05 18:36:00,
2013-01-05 14:41:00,82.2,47.7,30.06,NE,54,7.2,10.1,30,0.00,,SCT120,0.04,VWS V14.01,2013-01-05 18:41:00,
2013-01-05 14:46:00,81.7,47.3,30.06,East,97,5.8,10.5,30,0.00,,SCT120,0.04,VWS V14.01,2013-01-05 18:46:00,
2013-01-05 14:51:00,81.7,48.1,30.06,ENE,68,6.3,10.5,31,0.00,,SCT120,0.04,VWS V14.01,2013-01-05 18:51:00,
2013-01-05 14:56:00,82.0,47.6,30.06,ENE,60,7.2,11.0,30,0.00,,SCT120,0.04,VWS V14.01,2013-01-05 18:56:00,
2013-01-05 15:01:00,82.8,48.2,30.06,ENE,67,8.7,8.7,30,0.00,,SCT120,0.04,VWS V14.01,2013-01-05 19:01:00,
2013-01-05 15:06:00,83.3,45.9,30.06,SE,145,4.9,11.0,27,0.00,,SCT120,0.04,VWS V14.01,2013-01-05 19:06:00,
2013-01-05 15:11:00,83.5,47.0,30.06,East,88,10.5,11.0,28,0.00,,SCT120,0.04,VWS V14.01,2013-01-05 19:11:00,
2013-01-05 15:16:00,82.8,47.3,30.06,ENE,70,5.8,15.9,29,0.00,,SCT120,0.04,VWS V14.01,2013-01-05 19:16:00,
2013-01-05 15:21:00,83.1,48.5,30.06,ENE,74,3.6,8.3,30,0.00,,SCT120,0.04,VWS V14.01,2013-01-05 19:21:00,
2013-01-05 15:26:00,83.5,45.0,30.06,ENE,72,8.1,10.1,26,0.00,,SCT120,0.04,VWS V14.01,2013-01-05 19:26:00,
2013-01-05 15:31:00,83.3,47.8,30.06,ENE,70,5.8,10.1,29,0.00,,SCT120,0.04,VWS V14.01,2013-01-05 19:31:00,
2013-01-05 15:36:00,83.8,48.2,30.06,NNE,13,4.9,10.1,29,0.00,,SCT120,0.04,VWS V14.01,2013-01-05 19:36:00,
2013-01-05 15:41:00,83.1,47.6,30.06,ENE,77,8.3,10.1,29,0.00,,SCT120,0.04,VWS V14.01,2013-01-05 19:41:00,
2013-01-05 15:46:00,82.6,48.0,30.06,East,101,3.6,10.1,30,0.00,,SCT120,0.04,VWS V14.01,2013-01-05 19:46:00,
2013-01-05 15:51:00,82.2,48.6,30.06,ENE,78,3.1,11.4,31,0.00,,SCT120,0.04,VWS V14.01,2013-01-05 19:51:00,
2013-01-05 15:56:00,82.4,48.8,30.06,NE,45,4.0,11.4,31,0.00,,SCT120,0.04,VWS V14.01,2013-01-05 19:56:00,
2013-01-05 16:01:00,83.3,48.7,30.06,ESE,104,5.4,7.6,30,0.00,,SCT120,0.04,VWS V14.01,2013-01-05 20:01:00,
2013-01-05 16:06:00,82.8,47.3,30.06,NE,40,3.1,11.0,29,0.00,,SCT120,0.04,VWS V14.01,2013-01-05 20:06:00,
2013-01-05 16:11:00,82.2,47.7,30.06,ENE,77,5.8,13.6,30,0.00,,SCT120,0.04,VWS V14.01,2013-01-05 20:11:00,
2013-01-05 16:16:00,82.6,47.1,30.06,NNE,27,5.8,13.6,29,0.00,,SCT120,0.04,VWS V14.01,2013-01-05 20:16:00,
2013-01-05 16:21:00,82.6,46.2,30.06,ENE,62,7.2,11.0,28,0.00,,SCT120,0.04,VWS V14.01,2013-01-05 20:21:00,
2013-01-05 16:26:00,83.1,47.6,30.06,ESE,105,2.7,11.0,29,0.00,,SCT120,0.04,VWS V14.01,2013-01-05 20:26:00,
2013-01-05 16:31:00,83.3,46.8,30.06,ESE,102,5.4,11.0,28,0.00,,SCT120,0.04,VWS V14.01,2013-01-05 20:31:00,
2013-01-05 16:36:00,83.3,47.8,30.06,NE,48,5.4,11.0,29,0.00,,SCT120,0.04,VWS V14.01,2013-01-05 20:36:00,
2013-01-05 16:41:00,82.8,47.3,30.06,NE,46,6.3,10.5,29,0.00,,SCT120,0.04,VWS V14.01,2013-01-05 20:41:00,
2013-01-05 16:46:00,82.6,48.0,30.06,NNE,22,8.3,10.5,30,0.00,,SCT120,0.04,VWS V14.01,2013-01-05 20:46:00,
2013-01-05 16:51:00,81.9,48.3,30.06,East,94,3.1,14.1,31,0.00,,SCT120,0.04,VWS V14.01,2013-01-05 20:51:00,
2013-01-05 16:56:00,81.9,48.3,30.06,SE,133,3.1,14.1,31,0.00,,SCT120,0.04,VWS V14.01,2013-01-05 20:56:00,
2013-01-05 17:01:00,81.5,48.0,30.06,ENE,75,3.1,7.2,31,0.00,,SCT120,0.04,VWS V14.01,2013-01-05 21:01:00,
2013-01-05 17:06:00,81.7,48.1,30.06,NE,49,8.3,9.2,31,0.00,,SCT120,0.04,VWS V14.01,2013-01-05 21:06:00,
2013-01-05 17:11:00,81.5,48.0,30.06,NE,46,4.9,9.2,31,0.00,,SCT120,0.04,VWS V14.01,2013-01-05 21:11:00,
2013-01-05 17:16:00,81.3,47.8,30.06,NE,50,8.1,9.2,31,0.00,,SCT120,0.04,VWS V14.01,2013-01-05 21:16:00,
2013-01-05 17:21:00,81.0,48.4,30.06,ESE,112,4.0,6.3,32,0.00,,SCT120,0.04,VWS V14.01,2013-01-05 21:21:00,
2013-01-05 17:26:00,81.1,48.5,30.06,ESE,122,5.8,7.6,32,0.00,,SCT120,0.04,VWS V14.01,2013-01-05 21:26:00,
2013-01-05 17:31:00,81.0,48.4,30.06,ESE,111,4.0,7.6,32,0.00,,SCT120,0.04,VWS V14.01,2013-01-05 21:31:00,
2013-01-05 17:36:00,81.0,48.4,30.06,NE,51,3.1,7.6,32,0.00,,SCT120,0.04,VWS V14.01,2013-01-05 21:36:00,
2013-01-05 17:41:00,81.0,48.4,30.06,NNE,27,3.6,3.6,32,0.00,,SCT120,0.04,VWS V14.01,2013-01-05 21:41:00,
2013-01-05 17:46:00,80.6,47.2,30.06,NNE,27,3.6,3.6,31,0.00,,SCT120,0.04,VWS V14.01,2013-01-05 21:46:00,
2013-01-05 17:51:00,80.4,47.9,30.06,NNE,27,3.6,3.6,32,0.00,,SCT120,0.04,VWS V14.01,2013-01-05 21:51:00,
2013-01-05 17:56:00,80.4,47.9,30.06,NNE,27,3.6,3.6,32,0.00,,SCT120,0.04,VWS V14.01,2013-01-05 21:56:00,
2013-01-05 18:01:00,80.4,47.9,30.06,NNE,27,3.6,3.6,32,0.00,,SCT120,0.04,VWS V14.01,2013-01-05 22:01:00,
2013-01-05 18:06:00,80.2,47.7,30.06,NNE,27,3.6,3.6,32,0.00,,SCT120,0.04,VWS V14.01,2013-01-05 22:06:00,
2013-01-05 18:11:00,80.1,47.6,30.06,NNE,27,3.6,3.6,32,0.00,,SCT120,0.04,VWS V14.01,2013-01-05 22:11:00,
2013-01-05 18:16:00,80.1,47.6,30.06,NNE,27,3.6,3.6,32,0.00,,SCT120,0.04,VWS V14.01,2013-01-05 22:16:00,
2013-01-05 18:21:00,79.9,47.4,30.06,NNE,27,3.6,3.6,32,0.00,,SCT120,0.04,VWS V14.01,2013-01-05 22:21:00,
2013-01-05 18:26:00,79.9,48.2,30.06,NNE,27,3.6,3.6,33,0.00,,SCT120,0.04,VWS V14.01,2013-01-05 22:26:00,
2013-01-05 18:31:00,79.9,48.2,30.06,NNE,27,3.6,3.6,33,0.00,,SCT120,0.04,VWS V14.01,2013-01-05 22:31:00,
2013-01-05 18:36:00,79.9,48.2,30.09,NNE,27,3.6,3.6,33,0.00,,SCT120,0.04,VWS V14.01,2013-01-05 22:36:00,
2013-01-05 18:41:00,79.7,48.1,30.09,NNE,27,3.6,3.6,33,0.00,,SCT120,0.04,VWS V14.01,2013-01-05 22:41:00,
2013-01-05 18:46:00,79.7,48.1,30.09,NNE,27,3.6,3.6,33,0.00,,SCT120,0.04,VWS V14.01,2013-01-05 22:46:00,
2013-01-05 18:51:00,79.5,47.9,30.09,NNE,27,3.6,3.6,33,0.00,,SCT120,0.04,VWS V14.01,2013-01-05 22:51:00,
2013-01-05 18:56:00,79.5,48.7,30.09,NNE,27,3.6,3.6,34,0.00,,SCT120,0.04,VWS V14.01,2013-01-05 22:56:00,
2013-01-05 19:01:00,79.5,47.9,30.09,NNE,27,3.6,3.6,33,0.00,,SCT120,0.04,VWS V14.01,2013-01-05 23:01:00,
2013-01-05 19:06:00,79.3,47.8,30.09,NNE,27,3.6,3.6,33,0.00,,SCT120,0.04,VWS V14.01,2013-01-05 23:06:00,
2013-01-05 19:11:00,79.3,47.8,30.09,ESE,109,3.6,3.6,33,0.00,,SCT120,0.04,VWS V14.01,2013-01-05 23:11:00,
2013-01-05 19:16:00,79.2,47.6,30.09,ESE,109,3.6,3.6,33,0.00,,SCT120,0.04,VWS V14.01,2013-01-05 23:16:00,
2013-01-05 19:21:00,79.2,48.4,30.09,ESE,109,3.6,3.6,34,0.00,,SCT120,0.04,VWS V14.01,2013-01-05 23:21:00,
2013-01-05 19:26:00,79.2,48.4,30.09,ENE,77,3.1,3.6,34,0.00,,SCT120,0.04,VWS V14.01,2013-01-05 23:26:00,
2013-01-05 19:31:00,79.0,48.2,30.09,ENE,57,4.0,4.9,34,0.00,,SCT120,0.04,VWS V14.01,2013-01-05 23:31:00,
2013-01-05 19:36:00,79.0,49.0,30.09,ESE,106,2.7,4.9,35,0.00,,SCT120,0.04,VWS V14.01,2013-01-05 23:36:00,
2013-01-05 19:41:00,79.0,49.0,30.09,ENE,58,2.7,2.7,35,0.00,,SCT120,0.04,VWS V14.01,2013-01-05 23:41:00,
2013-01-05 19:46:00,79.0,49.8,30.09,East,92,2.2,2.7,36,0.00,,SCT120,0.04,VWS V14.01,2013-01-05 23:46:00,
2013-01-05 19:51:00,78.8,49.6,30.09,ESE,119,2.2,3.1,36,0.00,,SCT120,0.04,VWS V14.01,2013-01-05 23:51:00,
2013-01-05 19:56:00,78.6,50.2,30.09,ESE,106,4.9,4.9,37,0.00,,SCT120,0.04,VWS V14.01,2013-01-05 23:56:00,
2013-01-05 20:01:00,78.4,50.8,30.09,East,79,2.7,3.6,38,0.00,,SCT120,0.04,VWS V14.01,2013-01-06 00:01:00,
2013-01-05 20:06:00,78.4,50.0,30.09,SE,128,4.0,4.0,37,0.00,,SCT120,0.04,VWS V14.01,2013-01-06 00:06:00,
2013-01-05 20:11:00,78.3,49.9,30.09,SSE,149,5.8,6.3,37,0.00,,SCT120,0.04,VWS V14.01,2013-01-06 00:11:00,
2013-01-05 20:16:00,78.3,49.9,30.09,East,84,3.1,6.3,37,0.00,,SCT120,0.04,VWS V14.01,2013-01-06 00:16:00,
2013-01-05 20:21:00,78.3,49.9,30.12,SE,125,3.1,3.1,37,0.00,,SCT120,0.04,VWS V14.01,2013-01-06 00:21:00,
2013-01-05 20:26:00,78.3,49.9,30.12,NE,43,3.6,5.4,37,0.00,,SCT120,0.04,VWS V14.01,2013-01-06 00:26:00,
2013-01-05 20:32:00,78.3,49.9,30.12,ESE,107,2.7,5.4,37,0.00,,SCT120,0.04,VWS V14.01,2013-01-06 00:32:00,
2013-01-05 20:37:00,78.1,50.4,30.12,ESE,111,3.1,5.4,38,0.00,,SCT120,0.04,VWS V14.01,2013-01-06 00:37:00,
2013-01-05 20:42:00,77.9,50.3,30.12,ESE,110,3.1,5.8,38,0.00,,SCT120,0.04,VWS V14.01,2013-01-06 00:42:00,
2013-01-05 20:47:00,77.9,50.3,30.12,ESE,104,2.2,5.8,38,0.00,,SCT120,0.04,VWS V14.01,2013-01-06 00:47:00,
2013-01-05 20:52:00,78.1,51.1,30.12,East,96,2.7,5.8,39,0.00,,SCT120,0.04,VWS V14.01,2013-01-06 00:52:00,
2013-01-05 20:57:00,78.1,51.1,30.12,ESE,110,2.2,5.8,39,0.00,,SCT120,0.04,VWS V14.01,2013-01-06 00:57:00,
2013-01-05 21:02:00,78.1,51.1,30.12,ESE,111,3.6,3.6,39,0.00,,SCT120,0.04,VWS V14.01,2013-01-06 01:02:00,
2013-01-05 21:07:00,78.1,51.1,30.12,ESE,107,2.2,3.6,39,0.00,,SCT120,0.04,VWS V14.01,2013-01-06 01:07:00,
2013-01-05 21:12:00,78.1,51.1,30.12,East,99,0.0,3.6,39,0.00,,SCT120,0.04,VWS V14.01,2013-01-06 01:12:00,
2013-01-05 21:17:00,77.9,51.0,30.12,East,99,2.7,3.6,39,0.00,,SCT120,0.04,VWS V14.01,2013-01-06 01:17:00,
2013-01-05 21:22:00,77.9,51.7,30.09,SE,124,2.7,2.7,40,0.00,,SCT120,0.04,VWS V14.01,2013-01-06 01:22:00,
2013-01-05 21:27:00,77.9,51.7,30.09,ESE,106,0.0,3.6,40,0.00,,SCT120,0.04,VWS V14.01,2013-01-06 01:27:00,
2013-01-05 21:32:00,77.9,51.7,30.09,ESE,112,4.0,5.8,40,0.00,,SCT120,0.04,VWS V14.01,2013-01-06 01:32:00,
2013-01-05 21:37:00,77.9,51.7,30.12,ESE,103,0.0,5.8,40,0.00,,SCT120,0.04,VWS V14.01,2013-01-06 01:37:00,
2013-01-05 21:42:00,77.9,51.7,30.12,ESE,123,0.0,5.4,40,0.00,,SCT120,0.04,VWS V14.01,2013-01-06 01:42:00,
2013-01-05 21:47:00,77.9,52.3,30.12,ESE,110,2.7,5.4,41,0.00,,SCT120,0.04,VWS V14.01,2013-01-06 01:47:00,
2013-01-05 21:52:00,77.9,52.3,30.12,ESE,105,2.7,5.4,41,0.00,,SCT120,0.04,VWS V14.01,2013-01-06 01:52:00,
2013-01-05 21:57:00,77.7,52.2,30.12,East,94,0.0,5.4,41,0.00,,SCT120,0.04,VWS V14.01,2013-01-06 01:57:00,
2013-01-05 22:02:00,77.7,52.2,30.12,ESE,118,2.2,5.4,41,0.00,,SCT120,0.04,VWS V14.01,2013-01-06 02:02:00,
2013-01-05 22:07:00,77.7,52.2,30.12,ESE,111,0.0,5.4,41,0.00,,SCT120,0.04,VWS V14.01,2013-01-06 02:07:00,
2013-01-05 22:12:00,77.7,52.2,30.12,SE,142,0.0,5.4,41,0.00,,SCT120,0.04,VWS V14.01,2013-01-06 02:12:00,
2013-01-05 22:17:00,77.7,52.8,30.12,ESE,112,4.9,5.4,42,0.00,,SCT120,0.04,VWS V14.01,2013-01-06 02:17:00,
2013-01-05 22:22:00,77.5,52.7,30.12,SE,124,3.1,3.6,42,0.00,,SCT120,0.04,VWS V14.01,2013-01-06 02:22:00,
2013-01-05 22:27:00,77.5,52.7,30.12,East,81,4.0,5.8,42,0.00,,SCT120,0.04,VWS V14.01,2013-01-06 02:27:00,
2013-01-05 22:32:00,77.4,53.1,30.12,East,85,5.4,6.3,43,0.00,,SCT120,0.04,VWS V14.01,2013-01-06 02:32:00,
2013-01-05 22:37:00,77.2,53.0,30.12,SE,144,0.0,6.3,43,0.00,,SCT120,0.04,VWS V14.01,2013-01-06 02:37:00,
2013-01-05 22:42:00,77.2,53.0,30.12,ENE,78,2.7,4.9,43,0.00,,SCT120,0.04,VWS V14.01,2013-01-06 02:42:00,
2013-01-05 22:47:00,77.0,52.8,30.12,East,100,3.1,5.4,43,0.00,,SCT120,0.04,VWS V14.01,2013-01-06 02:47:00,
2013-01-05 22:52:00,76.8,53.3,30.12,SE,142,3.6,6.3,44,0.00,,SCT120,0.04,VWS V14.01,2013-01-06 02:52:00,
2013-01-05 22:57:00,76.8,53.3,30.12,SE,145,2.2,6.3,44,0.00,,SCT120,0.04,VWS V14.01,2013-01-06 02:57:00,
2013-01-05 23:02:00,76.6,53.1,30.12,SE,143,0.0,3.6,44,0.00,,SCT120,0.04,VWS V14.01,2013-01-06 03:02:00,
2013-01-05 23:07:00,76.6,53.7,30.12,East,94,2.7,3.6,45,0.00,,SCT120,0.04,VWS V14.01,2013-01-06 03:07:00,
2013-01-05 23:12:00,76.5,53.6,30.12,ESE,106,2.2,4.0,45,0.00,,SCT120,0.04,VWS V14.01,2013-01-06 03:12:00,
2013-01-05 23:17:00,76.5,54.2,30.12,East,101,3.1,4.9,46,0.00,,SCT120,0.04,VWS V14.01,2013-01-06 03:17:00,
2013-01-05 23:22:00,76.5,54.2,30.12,ESE,110,0.0,3.6,46,0.00,,SCT120,0.04,VWS V14.01,2013-01-06 03:22:00,
2013-01-05 23:27:00,76.3,54.0,30.12,East,79,0.0,4.0,46,0.00,,SCT120,0.04,VWS V14.01,2013-01-06 03:27:00,
2013-01-05 23:32:00,76.3,54.6,30.12,East,91,0.0,4.0,47,0.00,,SCT120,0.04,VWS V14.01,2013-01-06 03:32:00,
2013-01-05 23:37:00,76.3,55.2,30.12,ESE,105,2.7,4.9,48,0.00,,SCT120,0.04,VWS V14.01,2013-01-06 03:37:00,
2013-01-05 23:42:00,76.5,55.3,30.12,East,85,2.2,5.4,48,0.00,,SCT120,0.04,VWS V14.01,2013-01-06 03:42:00,
2013-01-05 23:47:00,76.3,55.2,30.12,ENE,67,3.1,5.4,48,0.00,,SCT120,0.04,VWS V14.01,2013-01-06 03:47:00,
2013-01-05 23:52:00,76.3,55.7,30.12,East,91,0.0,5.4,49,0.00,,SCT120,0.04,VWS V14.01,2013-01-06 03:52:00,
2013-01-05 23:57:00,76.3,55.7,30.12,ESE,111,2.7,5.4,49,0.00,,SCT120,0.04,VWS V14.01,2013-01-06 03:57:00,